Погода в Алейске

Погода в Алейске : погода сейчас, прогноз погоды и архив. Всё, что Вы хотите узнать о погоде в Алейске!

Хотите узнать прогноз погоды в Алейске? Тогда Вам сюда: Погода в Алейске

Поиск расширенной информации на нашем сайте:

Другие новости

Новости СМИ2

Главная страница сайта

Новости сайта

03.07.2017

Напоминаем, что на нашем специализированном сайте Метеоцентр.Азия вы можете получить высокодетализированные автоматические прогнозы погоды по пунктам России, СНГ и мира в авиационном формате (включающие направление и скорость ветра, видимость, явления погоды, количество и форму облачности, нижнюю и верхнюю границу облачности).

Рекомендуем: овощи доставка стоимость

Погода в Алейске - сегодня

Время (UTC), дата Ветер
(°,м/с) 
Видим.   Явления Облачность Т
(°С)
Тd
(°С)
f(%) Тe
(°С)
Pmin
(гПа)
dP
(гПа)
Po
(мм)
O2
(г/м3)
Тmin Tmax R s Состояние
почвы
18 22.07.17 280 (З) 10 км  {ливн. осадки}  10/10 600 м 
[Sc]
+17.7 +15.3 86 +28  1011.4  -0.6  743  278           
21 22.07.17 300 (СЗ) 10 км    10/10 600 м 
[Sc]
+16.8 +15.3 91 +27  1010.9  -0.6  743  279           
00 23.07.17 тихо ()   4000 м  дымка  10/6 600 м средняя 
[Sc|Ac As]
+16.3 +14.7 90 +25  1011.2  0.3  743  279  +16.3    0.0    сухая 
03 23.07.17 190 (Ю) 10 км    10/8 600 м средняя 
[Sc|Ac und]
+19.5 +15.3 77 +30  1011.4  0.5  743  276  +16.3         
06 23.07.17 220 (ЮЗ) 10 км  в посл. час гроза{ливн. осадки}  9/3 600 м кучево-дожд., средняя, верхняя 
[Cb cap|Ac trans|Ci sp]
+17.5 +15.1 86 +27  1011.5  -0.1  743  278           
09 23.07.17 200 (Ю) 20000 м    9/6 600 м верхняя 
[Cu med, cong|Ci ing]
+23.4 +14.9 59 +32  1010.4  -0.6  743  273           
12 23.07.17 220 (ЮЗ) 20000 м  {гроза}  9/3 600 м кучево-дожд., верхняя 
[Cb cap|Ci ing]
+22.5 +15 63 +31  1010.5  743  273    +24.1     
15 23.07.17 180 (Ю) 20000 м    6/4 600 м верхняя 
[Sc diur, vesp|Ci sp]
+20.2 +15.2 73 +29  1011  0.3  743  276           
18 23.07.17 тихо ()   20000 м    ясно 
-16.3 +14.6 100 -8  1011.2  -0.1  743  315           
21 23.07.17 060 (СВ) 20000 м    ясно 
+13.2 +12.1 93 +18  1010.8  -0.6  743  283           
00 24.07.17 тихо ()   2000 м  дымка  3/0 верхняя 
[Ci fib]
+14 +12.9 93 +19  1011.2  0.5  743  282  +12.6        влажная 
03 24.07.17 160 (Ю) 20000 м    1/0 верхняя 
[Cs]
+22.4 +15.6 65 +32  1010.2  -0.5  743  273           
06 24.07.17 170 (Ю) 20000 м    5/1 600 м верхняя 
[Cu med, cong|Ci]
+25.5 +14.6 51 +34  1009.3  -0.6  742  270           
09 24.07.17 160 (Ю) 20000 м    8/3 600 м верхняя 
[Cu med, cong|Cc]
+27.3 +13.4 42 +34  1008.1  -1.1  741  269           
12 24.07.17 150 (ЮВ) 20000 м    9/0 средняя, верхняя 
[Ac cast|Ci sp]
+26.8 +14 45 +34  1007.1  -1  740  269    +27.8       
15 24.07.17 100 (В) 20000 м    8/8 1000 м 
[Sc]
+21.7 +15.9 70 +32  1005.8  -1.6  739  273           
18 24.07.17 100 (В) 10 км  гроза без осадков{ливн. осадки}  10/10 600 м кучево-дожд. 
[Cb cap]
+19.9 +16.3 80 +32  1004  -1.9  738  274           
21 24.07.17 100 (В) 10 км  зарница{гроза, ливн. осадки}  4/4 600 м кучево-дожд. 
[Cb cap]
+18.5 +16.2 86 +31  1003  -1  737  275           
00 25.07.17 200 (Ю) 20000 м  {гроза, ливн. осадки}  3/3 600 м 
[Sc]
+18.9 +14.6 76 +28  1002.9  -0.1  737  275  +18.3      влажная 
03 25.07.17 240 (ЮЗ) 20000 м    8/0 верхняя 
[Ci sp]
+23.2 +15.5 62 +33  1003.8  1.1  738  271           
06 25.07.17 220 (ЮЗ) 20000 м    5/0 верхняя 
[Ci sp]
+25.4 +14.4 51 +33  1004  0.4  738  269           
09 25.07.17 240 (ЮЗ) 20000 м    8/5 600 м верхняя 
[Cu hum|Ci sp]
+26.6 +13.6 45 +33  1004  0.1  738  268           
12 25.07.17 270 (З) 20000 м    6/4 600 м верхняя 
[Cu hum|Ci sp]
+27.1 +13.2 42 +33  1003.8  -0.2  738  268    +27.9       
15 25.07.17 280 (З) 20000 м    3/0 верхняя 
[Ci sp]
+21.3 +15 67 +30  1004.6  0.4  738  273           
18 25.07.17 200 (Ю) 20000 м    ясно 
+17.7 +15.5 87 +29  1005.1  0.2  739  276           
Время (UTC), дата Ветер
(°,м/с) 
Видим.   Явления Облачность Т
(°С)
Тd
(°С)
f(%) Тe
(°С)
Pmin
(гПа)
dP
(гПа)
Po
(мм)
O2
(г/м3)
Тmin Tmax R s Состояние
почвы

Для получения пояснительной информации подведите курсор к названию столбца.

ПОГОДА в Алейске - архив

Всё, что Вы хотите узнать о погоде в Алейске - удобно и подробно!

Выберите нужную дату (начиная с 1 января 2015* года) и нажмите кнопку "Найти".
Будут отображены архивные сводки погоды по пункту Алейск, начиная с указанной даты.


Отображать данные в формате CSV (для использования в таблицах Excel)


Внимание! Наш архив погоды предназначен исключительно для личного некоммерческого использования в познавательных целях. Если Вам необходимы официальные справки о состоянии погоды (для производственных, юридических, коммерческих и т.п. целей), обращайтесь в органы Росгидромета.

*Примечание: данная дата относится к архиву по метеостанциям СССР (Россия, СНГ, Балтия).
Архив по метеостанциям Зарубежной Европы и Азии (кроме Китая) хранится 10 дней, по другим регионам земного шара (Китай, Африка, Америка, Австралия, Океания) - 1 день.

Алейск - район местоположения метеостанции


Название, широта, долгота, высота метеостанции:
Алейск 52.6°ш. 82.8°д. 175 м над ур. моря [Российская Федерация]

Дополнительная информация

В oтличие oт бoльшинства пoгoдных сайтoв мы публикуем пoдрoбную метеoинфoрмацию в детальнoм прoфессиoнальнoм фoрмате.

Характеристики температуры и влажнoсти вoздуха измеряются на высoте 2 м в тени вдали oт зданий и деревьев.
Скoрoсть ветра измеряется на высoте 10 м (на урoвне рoста челoвека скoрoсть ветра ниже в 1.5-2 раза). Если метеoстанция нахoдится в гoрoде или в лесу, тo скoрoсть ветра занижена на 2-4 м/с пo сравнению с oткрытым местoм. Скoрoсть ветра над акватoриями крупных рек и oзёр, а также на вершинах хoлмoв на 2-5 м/с выше, чем в oбычных услoвиях.
Атмoсфернoе давление в разных тoчках местнoсти мoжет значительнo oтличаться oт давления на метеoстанции, в зависимoсти oт услoвий рельефа (при пoдъёме на 10 м давление пoнижается примернo на 1 мм рт.ст.).